Weather History for Myrtle Beach, SC

Change the Weather History Date:

Monday, April 8, 2013

  Actual Average Record
Temperature  
Mean Temperature 62 °F -  
Max Temperature 73 °F 68 °F 85 °F (1949)
Min Temperature 51 °F 50 °F 29 °F (2007)
Degree Days  
Heating Degree Days 3    
Growing Degree Days 12 (Base 50)    
Moisture  
Dew Point 56 °F    
Average Humidity 82    
Maximum Humidity 100    
Minimum Humidity 57    
Precipitation  
Precipitation 0.00 in - - ()
Sea Level Pressure  
Sea Level Pressure 30.17 in    
Wind  
Wind Speed 7 mph (South)    
Max Wind Speed 20 mph    
Max Gust Speed -    
Visibility 9 miles    
Events      
Averages and records for this station are not official NWS values.
T = Trace of Precipitation, MM = Missing Value Source: NWS Daily Summary

Daily Weather History Graph

Daily Weather History Graph

Search for Another Location

Airport:

Trip Planner

Search our weather history database for the weather conditions in past years. The results will help you decide how hot, cold, wet, or windy it might be!

Date:

Astronomy

Apr. 08, 2013 Rise Set
Actual Time 6:53 AM EDT 7:41 PM EDT
Civil Twilight 6:28 AM EDT 8:07 PM EDT
Nautical Twilight 5:58 AM EDT 8:37 PM EDT
Astronomical Twilight 5:27 AM EDT 9:07 PM EDT
Moon 5:38 AM EDT (4/8) 6:16 PM EDT (4/8)
Length of Visible Light 13h 38m
Length of Day
12h 47m
Waning Crescent, 3% of the Moon is Illuminated
Apr 8
Waning Crescent
Apr 10
New
Apr 18
First Quarter
Apr 25
Full
May 2
Last Quarter

Hourly Weather History & Observations

Time (EDT) Temp. Dew Point Humidity Pressure Visibility Wind Dir Wind Speed Gust Speed Precip Events Conditions
12:15 AM 60.8 °F 57.2 °F 88% 30.19 in 10.0 mi South 8.1 mph - N/A   Clear
12:35 AM 60.8 °F 57.2 °F 88% 30.18 in 10.0 mi South 8.1 mph - N/A   Clear
12:55 AM 60.8 °F 55.4 °F 82% 30.18 in 10.0 mi South 6.9 mph - N/A   Clear
1:15 AM 60.8 °F 57.2 °F 88% 30.17 in 10.0 mi South 6.9 mph - N/A   Clear
1:35 AM 60.8 °F 57.2 °F 88% 30.17 in 10.0 mi South 9.2 mph - N/A   Clear
1:55 AM 60.8 °F 57.2 °F 88% 30.17 in 10.0 mi South 5.8 mph - N/A   Clear
2:15 AM 60.8 °F 57.2 °F 88% 30.16 in 10.0 mi South 4.6 mph - N/A   Clear
2:35 AM 59.0 °F 55.4 °F 88% 30.15 in 10.0 mi SSE 4.6 mph - N/A   Clear
2:55 AM 60.8 °F 57.2 °F 88% 30.14 in 10.0 mi South 4.6 mph - N/A   Clear
3:15 AM 60.8 °F 57.2 °F 88% 30.14 in 10.0 mi South 5.8 mph - N/A   Clear
3:35 AM 60.8 °F 57.2 °F 88% 30.14 in 10.0 mi South 5.8 mph - N/A   Clear
3:55 AM 60.8 °F 57.2 °F 88% 30.14 in 10.0 mi South 4.6 mph - N/A   Clear
4:15 AM 59.0 °F 57.2 °F 94% 30.14 in 10.0 mi South 3.5 mph - N/A   Clear
4:35 AM 57.2 °F 55.4 °F 94% 30.15 in 10.0 mi Calm Calm - N/A   Clear
4:55 AM 53.6 °F 51.8 °F 94% 30.15 in 6.0 mi Calm Calm - N/A   Clear
5:15 AM 53.6 °F 51.8 °F 94% 30.15 in 7.0 mi Calm Calm - N/A   Clear
5:35 AM 53.6 °F 50.0 °F 88% 30.15 in 0.2 mi Calm Calm - N/A   Unknown
5:45 AM 51.8 °F 51.8 °F 100% 30.16 in 7.0 mi Calm Calm - N/A   Clear
6:45 AM 51.8 °F 50.0 °F 94% 30.17 in 7.0 mi Calm Calm - N/A   Clear
7:46 AM 53.6 °F 51.8 °F 94% 30.20 in 7.0 mi Calm Calm - N/A   Clear
8:45 AM 62.6 °F 59.0 °F 88% 30.21 in 10.0 mi Calm Calm - N/A   Clear
9:45 AM 69.8 °F 60.8 °F 73% 30.21 in 10.0 mi South 6.9 mph - N/A   Clear
10:50 AM 73.4 °F 57.2 °F 57% 30.21 in 10.0 mi South 10.4 mph - N/A   Clear
11:45 AM 71.6 °F 59.0 °F 64% 30.21 in 10.0 mi South 13.8 mph - N/A   Scattered Clouds
12:50 PM 71.6 °F 59.0 °F 64% 30.19 in 10.0 mi SSE 13.8 mph - N/A   Partly Cloudy
1:56 PM 73.4 °F 57.2 °F 57% 30.18 in 10.0 mi South 17.3 mph - N/A   Partly Cloudy
2:45 PM 73.4 °F 57.2 °F 57% 30.16 in 10.0 mi South 17.3 mph - N/A   Partly Cloudy
3:45 PM 73.4 °F 57.2 °F 57% 30.15 in 10.0 mi South 17.3 mph - N/A   Clear
4:45 PM 71.6 °F 57.2 °F 60% 30.14 in 10.0 mi South 17.3 mph - N/A   Partly Cloudy
5:45 PM 69.8 °F 57.2 °F 64% 30.14 in 10.0 mi South 19.6 mph - N/A   Partly Cloudy
6:45 PM 68.0 °F 57.2 °F 68% 30.14 in 10.0 mi South 17.3 mph - N/A   Clear
7:45 PM 64.4 °F 57.2 °F 77% 30.15 in 10.0 mi South 11.5 mph - N/A   Clear
8:45 PM 64.4 °F 57.2 °F 77% 30.16 in 10.0 mi South 9.2 mph - N/A   Clear
10:55 PM 62.6 °F 57.2 °F 82% 30.18 in 10.0 mi SE 4.6 mph - N/A   Clear
11:15 PM 62.6 °F 59.0 °F 88% 30.18 in 10.0 mi Calm Calm - N/A   Clear
11:35 PM 60.8 °F 57.2 °F 88% 30.18 in 10.0 mi Calm Calm - N/A   Clear
11:55 PM 59.0 °F 57.2 °F 94% 30.19 in 10.0 mi Calm Calm - N/A   Clear